Skip Page Navigation
NASA JPL Caltech
NASA Logo - Jet Propulsion Laboratory + View the NASA Portal
+ Near-Earth Object (NEO) Program
Search JPL
JPL Home Earth Solar System Stars & Galaxies Technology
JPL Solar System Dynamics
BODIES ORBITS EPHEMERIDES TOOLS PHYSICAL DATA DISCOVERY FAQ SITE MAP
JPL Small-Body Database Browser
Search: [ help ]  
3474 Linsley (1962 HE)
Classification: Main-belt Asteroid          SPK-ID: 2003474
Ephemeris | Orbit Diagram | Orbital Elements | Physical Parameters | Discovery Circumstances ]

[ hide orbit diagram ]
Orbit Diagram
Note: Make sure you have Java enabled on your browser to see the applet. This applet is provided as a 3D orbit visualization tool. The applet was implemented using 2-body methods, and hence should not be used for determining accurate long-term trajectories (over several years or decades) or planetary encounter circumstances. For accurate long-term ephemerides, please instead use our Horizons system.
Orbit Viewer

Additional Notes: the orbits shown in the applet are color coded. The planets are white lines, and the asteroid/comet is a blue line. The bright white line indicates the portion of the orbit that is above the ecliptic plane, and the darker portion is below the ecliptic plane. Likewise for the asteroid/comet orbit, the light blue indicates the portion above the ecliptic plane, and the dark blue the portion below the ecliptic plane.

Orbit Viewer applet originally written and kindly provided by Osamu Ajiki (AstroArts), and further modified by Ron Baalke (JPL).


Orbital Elements at Epoch 2456400.5 (2013-Apr-18.0) TDB
Reference: MPO253386 (heliocentric ecliptic J2000)
 Element Value Uncertainty (1-sigma)   Units 
e 0.2079850 n/a  
a 2.5571259 n/a AU
q 2.0252821 n/a AU
i 5.97517 n/a deg
node 169.33903 n/a deg
peri 107.52365 n/a deg
M 123.86293 n/a deg
tp 2455886.6155959
(2011-Nov-21.11559590)
n/a JED
period 1493.5734645
4.09
n/a
n/a
d
yr
n 0.24103267 n/a deg/d
Q 3.0889697 n/a AU
  Orbit Determination Parameters
   # obs. used (total)      1053  
   first obs. used      1962-??-??  
   last obs. used      2013-02-06  
   # oppositions      21  
   planetary ephem.      DE403  
   condition code      0  
   fit RMS      0.54  
   data source      MPC:mpn  
   producer      MPCLINUX  

Additional Information
 T_jup = 3.399 

Ephemeris | Orbit Diagram | Orbital Elements | Physical Parameters | Discovery Circumstances ]

Physical Parameter Table
Parameter Symbol Value Units Sigma Reference Notes
absolute magnitude H 13.0 mag n/a PDS3 (MPC 28110)  
SMASSII spectral type spec_B Sa   n/a EAR-A-5-DDR-TAXONOMY-V4.0 based on a high-resolution spectrum by Xu et al. (1995) or Bus and Binzel (2002)

3474 Linsley (1962 HE)          Discovered 1962-Apr-27 by Goethe Link Observatory at Brooklyn
Discovered by the Indiana Asteroid Program, Goethe Link Observatory, University of Indiana. This program was conceived and directed by F. K. Edmondson; the plates were blinked and measured astrometrically by B. Potter and, following her retirement, by D. Owings; and the photometry was performed under the direction of T. Gehrels. During the years 1947-1967, in which the plates were exposed, a large number of people participated in various aspects of the program.
Reference: DISCOVERY.DBLast Updated: 2003-08-29

Alternate Designations
 1962 HE = 1962 JC = 1971 TG2 = 1979 QR6 = 1979 SK6 = 1986 CT1 
Ephemeris | Orbit Diagram | Orbital Elements | Physical Parameters | Discovery Circumstances ]
ABOUT SSD CREDITS/AWARDS PRIVACY/COPYRIGHT GLOSSARY LINKS
FirstGov 2013-Jun-20 12:43 UT
(server date/time)  
NASA Home Page
Site Manager:   Donald K. Yeomans
Webmaster  Alan B. Chamberlin